GW0410 Weather Reports


time (UTC)temp
C
wind
direction
speed
KPH
gust
KPH
rain 1hr
cm
rain 24hr
cm
rain mn
cm
humidity
%
barometer
mb
20260507114022 18 270 4.8 9.7 0.00 0.00 0.00 59 1012.9
20260507113112 19 267 4.8 9.7 0.00 0.00 0.00 60 1012.9
20260507112022 19 261 1.6 8.0 0.00 0.00 0.00 60 1013.0
20260507111111 19 230 3.2 8.0 0.00 0.00 0.00 60 1012.9
20260507110046 20 254 3.2 9.7 0.00 0.00 0.00 59 1013.0
20260507105020 18 275 3.2 11.3 0.00 0.00 0.00 61 1012.9
20260507104025 18 262 3.2 6.4 0.00 0.00 0.00 62 1012.9
20260507103048 20 241 1.6 6.4 0.00 0.00 0.00 59 1013.0
20260507102049 20 255 3.2 11.3 0.00 0.00 0.00 58 1013.0
20260507101024 18 262 4.8 8.0 0.00 0.00 0.00 62 1012.6
20260507100530 18 253 4.8 9.7 0.00 0.00 0.00 63 1013.0
20260507095022 20 258 1.6 6.4 0.00 0.00 0.00 62 1013.1
20260507094030 20 239 0.0 6.4 0.00 0.00 0.00 61 1012.7
20260507093025 20 246 3.2 9.7 0.00 0.00 0.00 62 1012.7
20260507092100 20 236 1.6 8.0 0.00 0.00 0.00 61 1012.7
20260507091108 18 192 0.0 0.0 0.00 0.00 0.00 64 1012.3
20260507090058 19 250 3.2 8.0 0.00 0.00 0.00 66 1012.4
20260507085042 19 301 0.0 4.8 0.00 0.00 0.00 63 1012.4
20260507084038 18 236 1.6 8.0 0.00 0.00 0.00 67 1012.0
20260507083053 18 241 1.6 6.4 0.00 0.00 0.00 67 1012.0
20260507082024 17 250 1.6 4.8 0.00 0.00 0.00 71 1011.9
20260507081033 16 247 1.6 4.8 0.00 0.00 0.00 73 1011.9
20260507080053 16 271 1.6 4.8 0.00 0.00 0.00 74 1011.9
20260507075042 16 245 3.2 8.0 0.00 0.00 0.00 74 1011.9
20260507074051 16 253 4.8 9.7 0.00 0.00 0.00 75 1011.6
20260507073037 16 235 1.6 4.8 0.00 0.00 0.00 76 1011.9
20260507072033 16 266 1.6 4.8 0.00 0.00 0.00 77 1011.9
20260507071053 16 261 1.6 4.8 0.00 0.00 0.00 77 1011.6
20260507070112 16 254 1.6 4.8 0.00 0.00 0.00 78 1011.6
20260507065051 16 271 4.8 9.7 0.00 0.00 0.00 77 1011.6
20260507064044 15 243 1.6 6.4 0.00 0.00 0.00 79 1011.6
20260507063028 15 272 1.6 8.0 0.00 0.00 0.00 80 1011.6
20260507062043 15 274 1.6 6.4 0.00 0.00 0.00 81 1011.6
20260507061027 15 238 0.0 1.6 0.00 0.00 0.00 81 1011.3
20260507060032 16 247 0.0 3.2 0.00 0.00 0.00 81 1011.3
20260507055024 15 0.0 0.0 0.00 0.00 0.00 83 1011.3
20260507054023 14 0.0 0.0 0.00 0.00 0.00 86 1010.9
20260507053023 13 0.0 0.0 0.00 0.00 0.00 88 1010.6
20260507052059 13 320 0.0 0.0 0.00 0.00 0.00 89 1010.5
20260507051053 12 263 1.6 4.8 0.00 0.00 0.00 90 1010.2
20260507050036 12 269 1.6 6.4 0.00 0.00 0.00 90 1009.9
20260507045101 12 254 4.8 8.0 0.00 0.00 0.00 90 1009.9
20260507044051 12 253 3.2 6.4 0.00 0.00 0.00 90 1009.9
20260507043034 12 264 3.2 8.0 0.00 0.00 0.00 90 1009.6
20260507042025 12 264 3.2 8.0 0.00 0.00 0.00 90 1009.6
20260507041045 12 263 3.2 6.4 0.00 0.00 0.00 91 1009.5
20260507040028 12 256 0.0 4.8 0.00 0.00 0.00 91 1009.6
20260507035041 11 287 0.0 0.0 0.00 0.00 0.00 91 1009.6
20260507034023 11 251 0.0 0.0 0.00 0.00 0.00 89 1009.6
20260507033059 12 0.0 0.0 0.00 0.00 0.00 88 1009.3
20260507032022 12 0.0 0.0 0.00 0.00 0.00 88 1009.3
20260507031020 12 266 0.0 4.8 0.00 0.00 0.00 88 1009.0
20260507030034 12 279 0.0 3.2 0.00 0.00 0.00 87 1009.0
20260507025022 12 263 0.0 3.2 0.00 0.00 0.00 87 1008.9
20260507024022 12 137 0.0 0.0 0.00 0.00 0.00 86 1008.6
20260507023027 12 246 1.6 6.4 0.00 0.00 0.00 86 1009.0
20260507022021 12 246 1.6 4.8 0.00 0.00 0.00 85 1008.9
20260507021021 13 235 3.2 8.0 0.00 0.00 0.00 85 1008.7
20260507020026 13 259 3.2 9.7 0.00 0.00 0.00 84 1008.3
20260507015040 13 252 3.2 8.0 0.00 0.00 0.00 83 1008.3
20260507014034 13 242 6.4 11.3 0.00 0.00 0.00 84 1008.3
20260507013048 13 257 3.2 8.0 0.00 0.00 0.00 85 1008.2
20260507012033 13 0.0 0.0 0.00 0.00 0.00 84 1008.2
20260507011029 13 135 0.0 0.0 0.00 0.00 0.00 83 1007.6
20260507010031 13 115 0.0 0.0 0.00 0.00 0.00 82 1007.7
20260507005036 14 257 0.0 0.0 0.00 0.00 0.00 81 1007.7
20260507004048 14 306 0.0 0.0 0.00 0.00 0.00 80 1007.3
20260507003024 14 249 0.0 0.0 0.00 0.00 0.00 79 1007.3
20260507002027 14 194 0.0 0.0 0.00 0.00 0.00 78 1007.3
20260507001021 15 215 0.0 0.0 0.00 0.00 0.00 77 1007.7
20260507000023 15 250 0.0 1.6 0.00 0.00 0.00 76 1007.1
20260506235051 15 197 4.8 14.5 0.00 0.00 0.00 75 1007.1
20260506234048 15 172 4.8 11.3 0.00 0.00 0.00 75 1007.4
20260506233022 15 151 1.6 6.4 0.00 0.00 0.00 75 1007.1
20260506232034 15 232 0.0 0.0 0.00 0.00 0.00 74 1007.1
20260506231023 16 176 0.0 4.8 0.00 0.00 0.00 73 1007.1
20260506230023 16 166 1.6 11.3 0.00 0.00 0.00 73 1007.4
20260506225047 16 194 0.0 1.6 0.00 0.00 0.00 73 1007.4
20260506224051 16 305 0.0 1.6 0.00 0.00 0.00 72 1007.1
20260506223050 16 277 1.6 4.8 0.00 0.00 0.00 72 1007.1
20260506222023 16 272 1.6 4.8 0.00 0.00 0.00 72 1007.1
20260506221021 16 245 1.6 4.8 0.00 0.00 0.00 71 1006.8
20260506220526 16 174 0.0 3.2 0.00 0.00 0.00 70 1006.4
20260506215026 16 182 1.6 14.5 0.00 0.00 0.00 69 1006.4
20260506214054 17 188 1.6 8.0 0.00 0.00 0.00 69 1006.4
20260506213054 17 164 1.6 11.3 0.00 0.00 0.00 68 1006.4
20260506212020 17 178 3.2 9.7 0.00 0.00 0.00 68 1006.4
20260506211025 17 170 3.2 14.5 0.00 0.00 0.00 67 1006.0
20260506210025 17 201 1.6 4.8 0.00 0.00 0.00 67 1006.0
20260506205034 17 175 1.6 4.8 0.00 0.00 0.00 66 1006.1
20260506204027 17 140 1.6 4.8 0.00 0.00 0.00 66 1006.4
20260506203027 17 158 3.2 4.8 0.00 0.00 0.00 65 1006.1
20260506202025 17 169 4.8 9.7 0.00 0.00 0.00 65 1006.0
20260506201047 18 167 4.8 12.9 0.00 0.00 0.00 64 1006.0
20260506200054 18 181 3.2 8.0 0.00 0.00 0.00 64 1006.1
20260506195029 18 175 1.6 6.4 0.00 0.00 0.00 63 1006.1
20260506194059 18 179 1.6 9.7 0.00 0.00 0.00 62 1006.1
20260506193049 18 174 3.2 11.3 0.00 0.00 0.00 61 1006.1
20260506192028 18 163 3.2 9.7 0.00 0.00 0.00 61 1006.1
20260506191028 18 183 0.0 3.2 0.00 0.00 0.00 61 1006.1
20260506190029 18 282 1.6 6.4 0.00 0.00 0.00 60 1005.6
20260506185021 18 179 0.0 8.0 0.00 0.00 0.00 60 1005.5
20260506184025 18 202 0.0 0.0 0.00 0.00 0.00 60 1005.5
20260506183023 19 214 0.0 1.6 0.00 0.00 0.00 59 1004.9
20260506182032 20 157 0.0 1.6 0.00 0.00 0.00 57 1004.9
20260506181058 20 122 1.6 8.0 0.00 0.00 0.00 56 1005.3
20260506180038 20 197 0.0 3.2 0.00 0.00 0.00 55 1004.8
20260506175029 21 190 1.6 8.0 0.00 0.00 0.00 54 1004.9
20260506174036 21 183 4.8 9.7 0.00 0.00 0.00 53 1005.2
20260506173051 21 223 3.2 9.7 0.00 0.00 0.00 53 1005.2
20260506172101 21 198 3.2 9.7 0.00 0.00 0.00 52 1005.3
20260506171101 21 170 4.8 16.1 0.00 0.00 0.00 53 1005.6
20260506170037 21 190 4.8 16.1 0.00 0.00 0.00 52 1005.4
20260506165025 21 163 3.2 9.7 0.00 0.00 0.00 52 1005.4
20260506164036 22 169 4.8 9.7 0.00 0.00 0.00 51 1005.4
20260506163053 22 154 4.8 9.7 0.00 0.00 0.00 51 1005.7
20260506162026 22 152 3.2 11.3 0.00 0.00 0.00 50 1005.7
20260506161023 22 145 4.8 9.7 0.00 0.00 0.00 49 1005.7
20260506160053 22 178 4.8 11.3 0.00 0.00 0.00 49 1005.7
20260506155044 23 198 4.8 12.9 0.00 0.00 0.00 49 1005.8
20260506154045 23 159 4.8 11.3 0.00 0.00 0.00 49 1006.1
20260506153030 23 163 3.2 11.3 0.00 0.00 0.00 48 1006.5
20260506152029 23 154 1.6 12.9 0.00 0.00 0.00 47 1006.5
20260506151031 23 182 1.6 6.4 0.00 0.00 0.00 50 1006.5
20260506150040 23 201 3.2 11.3 0.00 0.00 0.00 49 1006.5
20260506145044 23 162 4.8 9.7 0.00 0.00 0.00 50 1006.6
20260506144049 25 147 4.8 8.0 0.00 0.00 0.00 50 1006.6
20260506143036 24 136 4.8 16.1 0.00 0.00 0.00 50 1007.0
20260506142039 23 181 4.8 16.1 0.00 0.00 0.00 52 1006.9
20260506141043 23 167 6.4 11.3 0.00 0.00 0.00 52 1007.0
20260506140100 23 193 6.4 17.7 0.00 0.00 0.00 50 1007.3
20260506135042 24 156 4.8 11.3 0.00 0.00 0.00 51 1007.4
20260506134053 23 167 1.6 9.7 0.00 0.00 0.00 52 1007.3
20260506133059 23 199 3.2 9.7 0.00 0.00 0.00 52 1007.6
20260506132035 22 146 4.8 9.7 0.00 0.00 0.00 53 1007.6
20260506131031 22 141 4.8 8.0 0.00 0.00 0.00 54 1007.6
20260506130048 23 168 1.6 8.0 0.00 0.00 0.00 54 1008.0
20260506125044 23 172 3.2 12.9 0.00 0.00 0.00 52 1008.0
20260506124020 23 162 3.2 9.7 0.00 0.00 0.00 53 1008.0
20260506123111 23 170 3.2 6.4 0.00 0.00 0.00 52 1008.0
20260506122020 23 279 0.0 1.6 0.00 0.00 0.00 51 1008.0
20260506121022 23 166 3.2 8.0 0.00 0.00 0.00 51 1008.0
20260506120036 23 100 1.6 6.4 0.00 0.00 0.00 51 1008.1
20260506115041 24 130 1.6 8.0 0.00 0.00 0.00 49 1008.1